    Orbital elements:
        C/2010 B1 (Cardinal)
    Epoch 2011 Feb. 8.0 TT = JDT 2455600.5
    T 2011 Feb. 7.07970 TT                                  MPC
    q   2.9414935            (2000.0)            P               Q
    z  +0.0003409      Peri.  211.52462     +0.00059633     +0.24113640
     +/-0.0000248      Node   277.21387     +0.99184212     -0.12385214
    e   0.9989971      Incl.  101.97605     -0.12747100     -0.96255591
    Residuals in seconds of arc
    100119 661  0.2+  0.5-    100131 A77  0.2+  0.4+    100226 213  0.1+  0.2+
    100119 661  0.4+  0.4+    100131 A77  0.0   0.0     100226 213  0.1+  0.1+
    100119 661  0.5-  0.9+    100131 A77  0.7+  0.2+    100226 233  1.0+  1.7-
    100119 661  0.6-  1.5-    100201 J01  0.3+  0.2-    100226 213  0.1-  0.2+
    100119 661  1.4+  0.3+    100201 J01  0.4+  0.4+    100226 233  0.7+  0.4-
    100122 900  0.1+  0.2-    100201 J01  0.2+  0.5+    100226 233  0.4+  0.1+
    100122 900  0.7+  0.9-    100203 A77  0.2-  0.1+    100227 118  0.3+  0.3-
    100122 104  0.3-  0.2+    100203 A77  0.1+  0.2+    100227 118  0.2+  0.1-
    100122 104  0.4-  0.3+    100203 A77  0.1-  0.1+    100227 118  0.7-  0.8-
    100122 900  0.0   0.2+    100204 J51  0.5-  0.2-    100302 B82  0.3+  0.4-
    100122 104  0.1+  0.2+    100204 J51  0.4-  0.3-    100302 B82  0.0   0.3+
    100122 900  0.3-  0.3+    100206 372  0.1-  0.4+    100302 B82  0.2-  0.0
    100122 J41  0.0   0.3+    100206 372  0.3+  0.1-    100302 B82  0.2+  0.8+
    100122 J41  0.0   0.1+    100206 372  0.1-  0.3-    100303 B82  0.4+  0.1-
    100122 J41  0.3-  0.1-    100206 J40  1.7-  1.4-    100303 B82  0.7+  0.3+
    100122 114  0.1+  0.3+    100206 J40  1.1-  1.0-    100303 B82  0.4-  0.0
    100122 J41  0.4-  0.1-    100206 J40  1.4-  0.8-    100303 B82  0.2-  0.3+
    100122 J41  0.1-  0.2+    100207 B18  0.3-  0.1+    100304 585  0.3+  0.3+
    100122 114  0.3+  0.3+    100207 B18  0.3-  0.1+    100304 585  0.6-  0.3-
    100122 J41  0.2+  0.7+    100207 B18  0.3-  0.1+    100304 585  0.2-  0.3+
    100122 114  0.2+  0.5+    100207 232  0.2+  0.3+    100304 585  0.9+  0.4+
    100122 C12  0.4+  0.7+    100207 232  0.3-  0.3-    100304 585  0.5-  0.8+
    100122 213  0.5+  0.1-    100207 232  0.3-  0.1+    100304 585  0.3-  0.5+
    100122 213  0.4+  0.5-    100207 D93  0.2-  0.8+    100304 585  0.1+  0.3+
    100122 213  0.5+  0.6-    100207 D93  0.1-  0.2+    100304 585  0.4-  0.1+
    100122 C12  0.5+  0.3+    100207 D93  0.1-  0.2+    100304 585  0.0   0.1+
    100122 213  0.9+  0.5-    100207 160  0.1+  0.1-    100304 585  0.2-  0.2+
    100122 595  0.1+  0.2-    100207 160  0.0   0.1-    100304 585  0.6+  0.5-
    100122 595  0.1+  0.1-    100207 160  0.1-  0.2-    100304 585  0.2-  0.3+
    100122 152  0.3+  0.3-    100207 B82  0.1+  0.2+    100304 H45  0.4-  0.1-
    100122 152  0.5+  0.7+    100207 B82  0.2+  0.2+    100304 H45  0.1-  0.1-
    100122 152  0.2-  0.2-    100207 B82  0.2+  0.4-    100304 H45  0.0   0.2-
    100122 152  0.1+  0.1-    100207 B82  0.1+  0.2+    100304 H45  0.2-  0.1-
    100122 152  0.3+  0.5-    100207 B82  0.1+  0.2-    100304 H45  0.1-  0.1-
    100122 B20  0.1+  0.1-    100207 473  0.1-  0.0     100304 H45  0.2-  0.3-
    100122 152  0.0   0.2-    100207 473  0.1-  0.0     100304 H45  0.1+  0.2-
    100122 152  0.1+  0.1-    100207 204  0.4-  0.2+    100304 480  0.3-  0.1+
    100122 B20  0.1-  0.1+    100208 204  0.2-  0.2+    100304 473  0.1-  0.1-
    100122 152  0.1-  0.7+    100208 H23  0.0   0.5-    100304 473  0.1-  0.1-
    100122 B20  0.6-  0.2-    100208 H23 (2.5+  0.8-)   100305 H45  0.1+  0.1+
    100122 152  0.0   0.3+    100208 H23  1.2+  0.7+    100305 H45  0.2-  0.1-
    100122 152  0.3+  0.2-    100208 235  0.3-  0.3+    100305 H45  0.0   0.2-
    100122 152  0.0   0.1-    100210 661 (2.9+  0.0 )   100305 H45  0.0   0.1-
    100122 152  0.3-  0.0     100210 661  0.4+  0.2+    100305 H45  0.1+  0.2-
    100122 152  0.2+  0.2+    100210 661  1.1+  0.7+    100305 H45  0.0   0.2-
    100122 152  0.2-  0.1+    100210 J51  0.4-  0.0     100305 H45  0.1+  0.0
    100122 160  0.0   0.2-    100210 J51  0.0   0.1-    100305 235  0.1+  0.4+
    100122 160  0.2+  0.1+    100210 J51  0.4+  0.1-    100306 A77  0.4+  0.1-
    100122 160  0.0   0.2-    100211 H53  0.2-  0.2+    100306 B82  0.0   0.2-
    100122 160  0.1-  0.1-    100211 H53  0.1-  0.7-    100306 B82  0.1+  0.3-
    100123 235  0.3-  0.2-    100211 H53  0.0   0.0     100306 B82  0.1-  0.0
    100123 235  0.3-  0.1-    100211 H53  0.4+  0.0     100306 B82  0.1+  0.0
    100123 204  0.2-  0.1-    100211 H53  0.7+  0.6+    100306 B82  0.5+  0.3+
    100123 587  0.2+  0.1+    100211 H53  1.6+  0.0     100307 H45  0.1+  0.1+
    100123 587  0.2+  0.2+    100211 J01  0.1+  0.2+    100307 H45  0.1-  0.2-
    100123 204  0.3-  0.1+    100211 J01  0.0   0.0     100307 H45  0.0   0.3-
    100123 587  0.2+  0.3+    100213 H45  0.3-  0.3-    100307 H45  0.0   0.3-
    100123 587  0.0   0.0     100213 H45  0.1-  0.1-    100307 H45  0.0   0.4-
    100123 204  0.3-  0.1+    100213 H45  0.0   0.0     100307 H45  0.2-  0.4-
    100123 160  0.2+  0.3-    100213 H45  0.2+  0.1+    100307 215  0.3-  0.1+
    100123 160  0.0   0.2+    100213 H45  0.2-  0.0     100307 215  0.1-  0.2+
    100123 160  0.2-  0.1+    100213 H45  0.1-  0.1+    100307 215  0.1+  0.0
    100123 160  0.0   0.1-    100213 H45  0.0   0.1-    100307 B84  0.4-  0.3+
    100123 B33  0.1-  0.3+    100213 900  0.2-  0.3+    100307 B84  0.4-  0.2-
    100123 B33  0.5-  0.2+    100213 900  0.7-  0.1-    100307 B84  0.3-  0.1+
    100124 900  0.1+  0.4-    100213 J01  0.2+  0.1-    100307 J51  0.2-  0.1-
    100124 900  0.3+  0.3-    100213 J01  0.2-  0.3-    100307 J51  0.3+  0.4+
    100124 349  0.3+  0.1+    100213 J01  0.1+  0.2-    100308 D93  0.3-  0.7+
    100124 349  0.3+  0.1+    100215 D93  0.4-  0.5+    100308 D93  1.2+  0.6-
    100124 349  0.0   0.4-    100215 D93  0.2+  0.2+    100308 B82  0.4+  0.2+
    100124 372  0.2+  0.2-    100215 561  0.8-  0.4-    100308 118  0.2-  0.6-
    100124 372  0.0   0.1+    100215 561  0.0   0.3-    100308 118  0.3-  0.5-
    100124 372  0.2+  0.1+    100215 561  0.6-  0.8-    100308 118  0.3-  0.6-
    100124 372  0.3-  0.1-    100216 H23  0.1-  0.4+    100308 118  0.1-  0.6-
    100124 J01  0.1-  0.5-    100216 H45  0.7-  0.1-    100308 118  0.2-  0.6-
    100124 J01  0.0   0.1+    100216 H45  0.1+  0.1+    100308 B82  0.2+  0.4+
    100124 J01  0.2+  0.2-    100216 H23  1.4+  1.0+    100308 118  0.3-  0.7-
    100125 H06  0.2+  0.4+    100216 H45  0.2-  0.2-    100308 118  0.3-  0.6-
    100125 H06  0.2-  0.3+    100216 H45  0.1-  0.1-    100308 118  0.2-  0.6-
    100125 H06  0.1-  0.2-    100216 H45  0.1-  0.1-    100308 118  0.2-  0.6-
    100125 H45  0.3+  0.4-    100216 H45  0.0   0.2-    100308 118  0.2-  0.5-
    100125 H45  0.1+  0.4-    100216 H45  0.5-  0.2-    100308 B82  0.1-  0.0
    100125 H45  0.1-  0.4-    100216 H23 (2.5-  0.3-)   100310 H45  0.2-  0.3-
    100125 H45  0.1+  0.4-    100216 D93  0.3-  0.3+    100310 H45  0.0   0.3-
    100125 H45  0.0   0.5-    100216 D93  0.0   0.2+    100310 H45  0.0   0.2-
    100125 H45  0.0   0.4-    100216 046  0.1-  0.5+    100310 H45  0.1+  0.2-
    100125 H45  0.0   0.1-    100216 046  0.5+  0.1+    100310 H45  0.2+  0.1+
    100125 372  0.5+  0.0     100216 046  0.4+  0.4-    100310 H45  0.2+  0.0
    100125 372  0.5-  0.3-    100216 046  0.6+  0.1-    100310 H45  0.1+  0.0
    100125 372  0.5-  0.3-    100216 046  0.5+  0.2-    100310 H45  0.1+  0.2+
    100126 H45  0.6-  0.2+    100216 046  0.1-  0.5+    100310 118  0.0   0.4-
    100126 H45  0.3-  0.0     100216 046  0.8-  0.8+    100310 118  0.0   0.2-
    100126 H45  0.4-  0.1-    100216 B82  0.1-  0.1+    100310 118  0.3-  0.4-
    100126 H45  0.1+  0.7-    100216 B82  0.3-  0.1+    100310 118  0.1+  0.3-
    100126 H45  0.2-  0.3-    100216 B82  0.2+  0.3+    100310 118  0.0   0.3-
    100126 H45  0.0   0.1+    100217 046  0.1+  0.0     100310 118  0.1-  0.3-
    100126 H45  0.1+  0.1+    100217 046  0.1-  0.0     100311 900  0.0   0.4+
    100126 H06  0.5+  0.1+    100217 046  0.2+  0.4+    100311 900  0.2-  0.0
    100126 H06  0.5-  0.1-    100217 046  0.7+  0.1+    100311 349  0.1-  0.6+
    100126 H10  0.9-  0.1+    100217 046  0.0   0.1+    100311 349  0.5+  0.0
    100126 900  0.1+  0.2-    100217 046  0.3+  0.2-    100312 J01  0.3+  0.4+
    100126 900  0.2+  0.5+    100217 046  0.1-  0.2+    100312 J01  0.1-  0.4+
    100126 H10  0.4-  0.3-    100217 046  0.1+  1.2+    100312 J01  0.0   0.3+
    100126 H10  1.0-  0.4-    100218 H45  0.7+  0.2-    100312 235  0.1-  0.6+
    100126 H10  0.1+  0.2+    100218 H45  0.1+  0.4-    100313 939  0.1+  0.2+
    100126 H10  0.1+  0.1+    100218 H45  0.3+  0.3-    100313 939  0.1-  0.2+
    100126 H10  0.1+  0.3-    100218 H45  0.3+  0.3-    100313 939  0.3-  0.2+
    100126 J01  0.4-  0.2-    100218 H45  0.3+  0.3-    100313 J28  0.0   0.2-
    100126 J01  0.3+  0.0     100218 H45  0.3+  0.3-    100313 J28  0.6-  0.0
    100126 J01  0.3-  0.4-    100218 H45  0.1-  0.4-    100313 J28  0.2+  0.5+
    100127 J08  0.8-  0.0     100219 900  0.1-  0.3+    100315 B75  1.1+  0.4+
    100130 585  0.4-  0.2+    100219 900  0.2-  0.2+    100315 B75  0.2+  0.6+
    100130 585  1.0-  1.5+    100221 900  0.5-  0.4+    100316 224  0.1-  0.4+
    100130 585  0.4+  0.9+    100221 900  0.2-  0.1+    100316 224  0.1+  0.3+
    100130 585  0.3+  0.4+    100223 D93  0.0   1.0-    100316 224  0.1-  0.4+
    100130 585  0.8-  1.5+    100223 D93  0.1-  0.1+    100316 B75  0.7-  0.5-
    100130 585  0.5+  0.2+    100226 704  0.6+  0.2-    100316 B75  0.3-  0.1+
    100130 C12 (2.3+  8.8+)   100226 704  0.1+  0.4+    100316 213  0.2-  0.1-
    100130 C12 (2.7-  3.6-)   100226 704  0.5+  0.9+    100316 213  0.2-  0.0
    100130 C12  0.4+  0.5+    100226 704  0.1-  0.9+    100316 213  0.2-  0.2-
    100131 349  0.4-  1.1-    100226 704  0.7-  0.4-
    100131 349  0.1-  0.8-    100226 233  1.7+  1.3+
    
